• In Deutschland
  • Länderverzeichnis
  • Für 7 Tage
  • Wassertemperatur
  • Satellitenkarten
  • Wetterkarte
  • Widgets
  • user-avatar
    Anmelden

    Stündliche Wetter Herzogenaurach

    Heute, 24 September, Montag

    Zeit Temperatur Niederschläge Wind Luftdruck Luftfeuchtigkeit
    00:00 +7°C° 0 mm 5 m/S 735 mmHg 88%
    01:00 +8°C° 0 mm 3 m/S 737 mmHg 88%
    02:00 +7°C° 0 mm 3 m/S 738 mmHg 90%
    03:00 +7°C° 0 mm 3 m/S 739 mmHg 91%
    04:00 +5°C° 0 mm 3 m/S 739 mmHg 93%
    05:00 +5°C° 0 mm 4 m/S 740 mmHg 92%
    06:00 +5°C° 0 mm 4 m/S 741 mmHg 92%
    07:00 +5°C° 0 mm 4 m/S 741 mmHg 91%
    08:00 +7°C° 0 mm 5 m/S 742 mmHg 82%
    09:00 +8°C° 0 mm 5 m/S 742 mmHg 73%
    10:00 +9°C° 0 mm 5 m/S 743 mmHg 64%
    11:00 +10°C° 0 mm 5 m/S 743 mmHg 58%
    12:00 +12°C° 0 mm 5 m/S 743 mmHg 53%
    13:00 +13°C° 0 mm 5 m/S 743 mmHg 47%
    14:00 +13°C° 0 mm 5 m/S 743 mmHg 48%
    15:00 +13°C° 0 mm 5 m/S 743 mmHg 49%
    16:00 +13°C° 0 mm 5 m/S 743 mmHg 50%
    17:00 +11°C° 0 mm 4 m/S 743 mmHg 56%
    18:00 +10°C° 0 mm 3 m/S 744 mmHg 63%
    19:00 +9°C° 0 mm 2 m/S 744 mmHg 70%
    20:00 +8°C° 0 mm 2 m/S 744 mmHg 74%
    21:00 +7°C° 0 mm 2 m/S 745 mmHg 78%
    22:00 +7°C° 0 mm 2 m/S 745 mmHg 81%
    23:00 +7°C° 0 mm 1 m/S 745 mmHg 84%

    Morgen, 25 September, Dienstag

    Zeit Temperatur Niederschläge Wind Luftdruck Luftfeuchtigkeit
    00:00 +7°C° 0 mm 1 m/S 746 mmHg 87%
    01:00 +6°C° 0 mm 1 m/S 746 mmHg 89%
    02:00 +6°C° 0 mm 1 m/S 746 mmHg 90%
    03:00 +5°C° 0 mm 1 m/S 746 mmHg 91%
    04:00 +5°C° 0 mm 1 m/S 746 mmHg 92%
    05:00 +5°C° 0 mm 1 m/S 747 mmHg 91%
    06:00 +5°C° 0 mm 1 m/S 747 mmHg 90%
    07:00 +5°C° 0 mm 1 m/S 747 mmHg 89%
    08:00 +7°C° 0 mm 1 m/S 748 mmHg 77%
    09:00 +8°C° 0 mm 2 m/S 748 mmHg 66%
    10:00 +10°C° 0 mm 2 m/S 748 mmHg 55%
    11:00 +12°C° 0 mm 2 m/S 748 mmHg 50%
    12:00 +13°C° 0 mm 2 m/S 748 mmHg 46%
    13:00 +14°C° 0 mm 2 m/S 747 mmHg 41%
    14:00 +14°C° 0 mm 2 m/S 747 mmHg 41%
    15:00 +14°C° 0 mm 2 m/S 747 mmHg 41%
    16:00 +14°C° 0 mm 2 m/S 747 mmHg 41%
    17:00 +12°C° 0 mm 2 m/S 747 mmHg 47%
    18:00 +10°C° 0 mm 2 m/S 747 mmHg 54%
    19:00 +8°C° 0 mm 2 m/S 747 mmHg 60%
    20:00 +7°C° 0 mm 2 m/S 747 mmHg 62%
    21:00 +6°C° 0 mm 2 m/S 747 mmHg 64%
    22:00 +6°C° 0 mm 2 m/S 747 mmHg 67%
    23:00 +5°C° 0 mm 2 m/S 747 mmHg 68%

    übermorgen, 26 September, Mittwoch

    Zeit Temperatur Niederschläge Wind Luftdruck Luftfeuchtigkeit
    00:00 +5°C° 0 mm 2 m/S 747 mmHg 69%
    01:00 +4°C° 0 mm 2 m/S 747 mmHg 70%
    02:00 +4°C° 0 mm 2 m/S 746 mmHg 71%
    03:00 +4°C° 0 mm 2 m/S 746 mmHg 72%
    04:00 +4°C° 0 mm 1 m/S 746 mmHg 74%
    05:00 +4°C° 0 mm 1 m/S 746 mmHg 73%
    06:00 +5°C° 0 mm 1 m/S 746 mmHg 72%
    07:00 +5°C° 0 mm 1 m/S 746 mmHg 71%
    08:00 +7°C° 0 mm 1 m/S 746 mmHg 63%
    09:00 +9°C° 0 mm 2 m/S 746 mmHg 54%
    10:00 +12°C° 0 mm 2 m/S 746 mmHg 46%
    11:00 +14°C° 0 mm 2 m/S 746 mmHg 42%
    12:00 +15°C° 0 mm 2 m/S 746 mmHg 38%
    13:00 +18°C° 0 mm 1 m/S 745 mmHg 34%
    14:00 +18°C° 0 mm 1 m/S 745 mmHg 34%
    15:00 +18°C° 0 mm 1 m/S 744 mmHg 35%
    16:00 +19°C° 0 mm 1 m/S 744 mmHg 36%
    17:00 +15°C° 0 mm 1 m/S 744 mmHg 42%
    18:00 +13°C° 0 mm 1 m/S 744 mmHg 49%
    19:00 +10°C° 0 mm 0 m/S 744 mmHg 55%
    20:00 +9°C° 0 mm 0 m/S 744 mmHg 57%
    21:00 +10°C° 0 mm 1 m/S 744 mmHg 60%
    22:00 +9°C° 0 mm 1 m/S 745 mmHg 62%
    23:00 +9°C° 0 mm 1 m/S 745 mmHg 64%

    27 September, Donnerstag

    Zeit Temperatur Niederschläge Wind Luftdruck Luftfeuchtigkeit
    00:00 +9°C° 0 mm 1 m/S 744 mmHg 66%
    01:00 +8°C° 0 mm 1 m/S 744 mmHg 68%
    02:00 +8°C° 0 mm 1 m/S 744 mmHg 70%
    03:00 +8°C° 0 mm 1 m/S 744 mmHg 72%
    04:00 +8°C° 0 mm 1 m/S 744 mmHg 74%
    05:00 +8°C° 0 mm 1 m/S 744 mmHg 75%
    06:00 +8°C° 0 mm 1 m/S 744 mmHg 75%
    07:00 +8°C° 0 mm 1 m/S 744 mmHg 76%
    08:00 +11°C° 0 mm 1 m/S 744 mmHg 67%
    09:00 +14°C° 0 mm 1 m/S 744 mmHg 59%
    10:00 +16°C° 0 mm 1 m/S 744 mmHg 50%
    11:00 +19°C° 0 mm 1 m/S 743 mmHg 46%
    12:00 +21°C° 0 mm 1 m/S 743 mmHg 41%
    13:00 +22°C° 0 mm 1 m/S 743 mmHg 36%
    14:00 +22°C° 0 mm 1 m/S 742 mmHg 37%
    15:00 +22°C° 0 mm 1 m/S 741 mmHg 38%
    16:00 +22°C° 0 mm 1 m/S 741 mmHg 38%
    17:00 +18°C° 0 mm 0 m/S 741 mmHg 45%
    18:00 +15°C° 0 mm 0 m/S 740 mmHg 52%
    19:00 +13°C° 0 mm 0 m/S 740 mmHg 59%
    20:00 +12°C° 0 mm 0 m/S 740 mmHg 61%
    21:00 +12°C° 0 mm 0 m/S 740 mmHg 63%
    22:00 +12°C° 0 mm 1 m/S 740 mmHg 66%
    23:00 +12°C° 0 mm 1 m/S 739 mmHg 68%

    28 September, Freitag

    Zeit Temperatur Niederschläge Wind Luftdruck Luftfeuchtigkeit
    00:00 +11°C° 0 mm 1 m/S 739 mmHg 71%
    01:00 +11°C° 0 mm 1 m/S 739 mmHg 74%
    02:00 +11°C° 0 mm 1 m/S 738 mmHg 76%
    03:00 +10°C° 0 mm 1 m/S 738 mmHg 78%
    04:00 +10°C° 0 mm 1 m/S 738 mmHg 81%
    05:00 +10°C° 0 mm 1 m/S 737 mmHg 80%
    06:00 +10°C° 0 mm 1 m/S 737 mmHg 80%
    07:00 +9°C° 0 mm 0 m/S 737 mmHg 80%
    08:00 +12°C° 0 mm 0 m/S 737 mmHg 71%
    09:00 +15°C° 0 mm 0 m/S 737 mmHg 62%
    10:00 +17°C° 0 mm 0 m/S 737 mmHg 52%
    11:00 +19°C° 0 mm 0 m/S 737 mmHg 48%
    12:00 +20°C° 0 mm 0 m/S 737 mmHg 44%
    13:00 +23°C° 0 mm 1 m/S 736 mmHg 40%
    14:00 +23°C° 0 mm 1 m/S 736 mmHg 40%
    15:00 +23°C° 0 mm 1 m/S 736 mmHg 41%
    16:00 +22°C° 0 mm 1 m/S 735 mmHg 42%
    17:00 +20°C° 0 mm 1 m/S 735 mmHg 48%
    18:00 +18°C° 0 mm 1 m/S 735 mmHg 55%
    19:00 +14°C° 0 mm 1 m/S 735 mmHg 62%
    20:00 +14°C° 0 mm 1 m/S 735 mmHg 64%
    21:00 +13°C° 0 mm 1 m/S 735 mmHg 67%
    22:00 +12°C° 0 mm 1 m/S 736 mmHg 70%
    23:00 +12°C° 0 mm 1 m/S 736 mmHg 74%

    29 September, Samstag

    Zeit Temperatur Niederschläge Wind Luftdruck Luftfeuchtigkeit
    00:00 +10°C° 0 mm 2 m/S 736 mmHg 79%
    01:00 +10°C° 0 mm 2 m/S 736 mmHg 83%
    02:00 +9°C° 0 mm 2 m/S 736 mmHg 86%
    03:00 +9°C° 0 mm 2 m/S 736 mmHg 89%
    04:00 +9°C° 0 mm 2 m/S 737 mmHg 92%
    05:00 +9°C° 0 mm 3 m/S 737 mmHg 92%
    06:00 +9°C° 0 mm 3 m/S 737 mmHg 92%
    07:00 +9°C° 0 mm 3 m/S 738 mmHg 91%
    08:00 +10°C° 0 mm 3 m/S 738 mmHg 83%
    09:00 +12°C° 0 mm 3 m/S 738 mmHg 74%
    10:00 +14°C° 0 mm 4 m/S 738 mmHg 66%
    11:00 +15°C° 0 mm 4 m/S 738 mmHg 62%
    12:00 +17°C° 0 mm 4 m/S 738 mmHg 58%
    13:00 +18°C° 0 mm 4 m/S 738 mmHg 55%
    14:00 +18°C° 0 mm 4 m/S 738 mmHg 55%
    15:00 +18°C° 0 mm 4 m/S 737 mmHg 56%
    16:00 +17°C° 0 mm 4 m/S 737 mmHg 56%
    17:00 +16°C° 0 mm 3 m/S 737 mmHg 62%
    18:00 +13°C° 0 mm 3 m/S 737 mmHg 68%
    19:00 +11°C° 0 mm 3 m/S 737 mmHg 73%
    20:00 +10°C° 0 mm 3 m/S 737 mmHg 75%
    21:00 +10°C° 0 mm 3 m/S 737 mmHg 76%
    22:00 +9°C° 0 mm 3 m/S 738 mmHg 77%
    23:00 +8°C° 0 mm 2 m/S 737 mmHg 79%
    Mehr zeigen